EHI
0 0 0 0 0 0 0 0 0 0 0 0 0 0 0 0 0 0 0 0 0 0 0 0 0 0 0 0 0 0 0 0 0 0 0 0 0 0 0 0 0 0 0
0 0 0 0 0 0 0 0 0 0 0 0 0 0 0 0 0 0 0 0 0 0 0 0 0 0 0 0 0 0 0 0 0 0 0 0 0 0 0 0 0 0 0
0 0 0 0 0 0 0 0 0 0 0 0 0 0 0 0 0 0 0 0 0 0 0 0 0 0 0 0 0 0 0 0 0 0 0 0 0 0 0 0 0 0 0
0 0 0 0 0 0 0 0 0 0 0 0 0 0 0 0 0 0 0 0 0 0 0 0 0 0 0 0 0 0 0 0 0 0 0 0 0 0 0 0 0 0 0
0 0 0 0 0 0 0 0 0 0 0 0 0 0 0 0 0 0 0 0 0 0 0 0 0 0 0 0 0 0 0 0 0 0 0 0 0 0 0 0 0 0 0
0 0 0 0 0 0 0 0 0 0 0 0 0 0 0 0 0 0 0 0 0 0 0 0 0 0 0 0 0 0 0 0 0 0 0 0 0 0 0 0 0 0 0
0 0 0 0 0 0 0 0 0 0 0 0 0 0 0 0 0 0 0 0 0 0 0 0 0 0 0 0 0 0 0 0 0 0 0 0 0 0 0 0 0 0 0
0 0 0 0 0 0 0 0 0 0 0 0 0 0 0 0 0 0 0 0 0 0 0 0 0 0 0 0 0 0 0 0 0 0 0 0 0 0 0 0 0 0 0
0 0 0 0 0 0 0 0 0 0 0 0 0 0 0 0 0 0 0 0 0 0 0 0 0 0 0 0 0 0 0 0 0 0 0 0 0 0 0 0 0 0 0
0 0 0 0 0 0 0 0 0 0 0 0 0 0 0 0 0 0 0 0 0 0 0 0 0 0 0 0 0 0 0 0 0 0 0 0 0 0 0 0 0 0 0
0 0 0 0 0 0 0 0 0 0 0 0 0 0 0 0 0 0 0 0 0 0 0 0 0 0 0 0 0 0 0 0 0 0 0 0 0 0 0 0 0 0 0
0 0 0 0 0 0 0 0 0 0 0 0 0 0 0 0 0 0 0 0 0 0 0 0 0 0 0 0 0 0 0 0 0 0 0 0 0 0 0 0 0 0 0
0 0 0 0 0 0 0 0 0 0 0 0 0 0 0 0 0 0 0 0 0 0 0 0 0 0 0 0 0 0 0 0 0 0 0 0 0 0 0 0 0 0 0
0 0 0 0 0 0 0 0 0 0 0 0 0 0 0 0 0 0 0 0 0 0 0 0 0 0 0 0 0 0 0 0 0 0 0 0 0 0 0 0 0 0 0
0 0 0 0 0 0 0 0 0 0 0 0 0 0 0 0 0 0 0 0 0 0 0 0 0 0 0 0 0 0 0 0 0 0 0 0 0 0 0 0 0 0 0
0 0 0 0 0 0 0 0 0 0 0 0 0 0 0 0 0 0 0 0 0 0 0 0 0 0 0 0 0 0 0 0 0 0 0 0 0 0 0 0 0 0 0
0 0 0 0 0 0 0 0 0 0 0 0 0 0 0 0 0 0 0 0 0 0 0 0 0 0 0 0 0 0 0 0 0 0 0 0 0 0 0 0 0 0 0
0 0 0 0 0 0 0 0 0 0 0 0 0 0 0 0 0 0 0 0 0 0 0 0 0 0 0 0 0 0 0 0 0 0 0 0 0 0 0 0 0 0 0
0 0 0 0 0 0 0 0 0 0 0 0 0 0 0 0 0 0 0 0 0 0 0 0 0 0 0 0 0 0 0 0 0 0 0 0 0 0 0 0 0 0 0
0 0 0 0 0 0 0 0 0 0 0 0 0 0 0 0 0 0 0 0 0 0 0 0 0 0 0 0 0 0 0 0 0 0 0 0 0 0 0 0 0 0 0
0 0 0 0 0 0 0 0 0 0 0 0 0 0 0 0 0 0 0 0 0 0 0 0 0 0 0 0 0 0 0 0 0 0 0 0 0 0 0 0 0 0 0
0 0 0 0 0 0 0 0 0 0 0 0 0 0 0 0 0 0 0 0 0 0 0 0 0 0 0 0 0 0 0 0 0 0 0 0 0 0 0 0 0 0 0
0 0 0 0 0 0 0 0 0 0 0 0 0 0 0 0 0 0 0 0 0 0 0 0 0 0 0 0 0 0 0 0 0 0 0 0 0 0 0 0 0 0 0
0 0 0 0 0 0 0 0 0 0 0 0 0 0 0 0 0 0 0 0 0 0 0 0 0 0 0 0 0 0 0 0 0 0 0 0 0 0 0 0 0 0 0
0 0 0 0 0 0 0 0 0 0 0 0 0 0 0 0 0 0 0 0 0 0 0 0 0 0 0 0 0 0 0 0 0 0 0 0 0 0 0 0 0 0 0
0 0 0 0 0 0 0 0 0 0 0 0 0 0 0 0 0 0 0 0 0 0 0 0 0 0 0 0 0 0 0 0 0 0 0 0 0 0 0 0 0 0 0
Wind_Speed
9 6 6 6 7 8 10 12 13 11 10 8 8 7 7 6 6 6 8 8 8 8 7 5 5 5 4 4 4 2 2 1 0 1 2 3 2 1 1 1 0 1 1
6 5 4 6 8 10 11 12 13 12 12 10 8 6 5 4 5 5 6 8 8 8 7 7 6 6 4 4 4 3 2 1 1 2 1 3 4 2 1 1 1 1 1
7 6 5 6 7 9 11 11 12 12 12 10 6 4 3 2 3 5 6 8 9 8 8 8 7 6 6 5 6 5 5 3 2 2 3 2 3 3 3 2 2 2 2
5 5 5 6 8 9 8 9 10 11 11 11 10 10 8 8 8 6 6 6 8 9 9 8 8 7 6 6 6 6 4 4 3 2 2 3 3 2 3 3 2 3 3
5 5 6 6 6 6 6 7 8 9 10 11 12 11 10 8 4 4 6 7 7 8 8 8 8 7 6 7 6 6 6 5 5 4 3 2 1 2 3 5 4 3 3
4 4 4 3 4 4 5 6 8 9 10 11 11 12 12 9 7 7 7 7 5 6 8 8 8 8 7 7 7 7 7 6 5 4 4 4 4 4 4 6 5 4 4
4 4 4 3 4 5 6 6 8 9 9 10 11 12 12 11 11 10 9 8 6 6 9 8 8 7 8 8 7 7 7 7 7 7 5 5 5 4 4 4 4 4 4
4 5 5 4 5 5 6 7 8 9 9 10 11 10 10 8 8 9 8 9 8 8 8 9 9 9 8 8 7 6 7 6 7 7 6 5 5 4 4 4 3 4 4
5 5 5 4 5 5 6 7 8 8 9 9 9 9 9 9 8 8 8 6 6 6 7 8 8 8 8 8 7 6 7 6 7 7 7 5 4 4 4 4 4 4 4
5 5 4 4 4 4 4 5 7 8 7 8 8 7 8 9 8 7 8 7 7 6 7 7 8 8 7 7 7 6 6 6 6 5 6 6 4 4 4 5 5 5 5
6 5 5 4 3 3 4 4 5 6 6 7 7 7 7 7 7 7 7 7 6 6 7 8 8 7 7 7 7 7 7 8 7 6 7 8 6 5 4 4 4 5 5
5 5 4 3 3 3 4 4 5 5 6 6 6 6 6 6 6 7 7 6 6 6 7 6 7 7 7 7 8 8 8 8 8 8 7 8 6 6 5 5 6 6 6
5 4 4 4 4 4 4 4 4 5 4 5 5 5 5 6 7 7 6 6 6 5 5 6 7 7 7 7 8 8 8 8 8 8 8 8 7 7 5 6 6 5 6
6 5 5 5 5 4 4 4 4 4 4 5 5 6 6 6 6 5 5 5 5 5 5 6 6 6 6 6 6 6 7 7 7 7 7 7 8 8 7 6 7 6 6
7 7 6 5 5 4 4 4 4 4 4 5 5 6 5 4 4 4 4 4 4 5 5 5 5 4 5 5 6 6 6 6 6 6 6 7 8 10 8 6 6 6 5
9 8 7 6 6 6 5 4 4 4 4 5 5 4 4 4 4 4 3 3 3 3 3 4 4 4 4 6 8 7 5 6 6 6 5 6 7 10 13 14 12 9 7
9 8 8 8 7 6 6 6 5 4 5 5 4 4 4 4 4 3 3 3 3 3 3 3 4 4 5 7 8 8 5 5 5 5 5 5 6 8 6 10 13 12 15
9 8 7 6 5 4 4 4 4 4 5 4 4 4 4 4 3 3 3 3 2 3 3 3 3 3 4 6 7 6 3 3 4 5 5 5 5 6 6 6 6 7 8
8 7 6 5 4 5 5 5 4 4 4 4 4 4 5 4 4 3 3 2 2 2 2 2 3 3 4 5 5 4 2 2 4 4 4 5 6 10 12 7 6 7 7
5 5 4 4 4 5 6 6 5 5 5 5 4 4 4 4 4 4 3 2 2 2 2 1 2 3 3 4 4 4 2 2 3 3 4 8 9 11 13 7 6 8 7
4 4 5 5 5 6 7 6 5 6 5 4 4 4 4 4 3 3 2 2 2 1 1 1 1 2 3 4 5 5 2 3 3 3 3 4 11 13 13 11 6 9 9
3 4 5 4 4 6 7 6 6 4 4 4 4 4 3 3 3 3 2 2 2 2 1 0 1 1 2 3 5 7 7 6 3 4 3 5 11 12 12 9 10 13 11
4 4 5 4 3 5 6 7 5 5 5 5 4 3 3 2 3 3 3 2 2 1 1 1 2 2 2 3 6 8 8 9 5 4 8 10 11 10 7 9 12 9 3
4 4 5 5 4 4 4 5 5 5 6 5 4 3 3 2 2 2 2 2 2 2 1 2 2 2 2 2 2 3 4 6 5 4 6 9 9 7 7 7 6 3 3
3 4 5 6 5 4 4 4 5 6 6 5 4 3 3 3 2 1 1 2 2 3 3 3 3 3 3 5 7 5 3 3 4 4 2 2 2 3 3 3 3 3 3
4 4 4 5 5 5 5 4 5 6 7 5 4 3 2 2 2 1 1 1 2 3 4 5 5 4 7 9 10 10 10 10 10 6 2 3 3 4 4 4 4 3 4
Wind_Direction
251 238 219 204 192 190 191 192 192 188 178 180 184 188 198 198 198 201 199 195 192 188 188 190 186 182 186 191 178 163 172 208 124 42 342 327 320 320 312 313 300 344 359
269 249 220 198 195 195 195 194 194 188 186 190 186 184 180 189 197 196 198 197 194 191 192 190 190 188 186 184 181 169 165 186 146 136 74 333 329 317 296 294 259 268 298
255 252 225 209 201 200 198 196 195 190 190 181 162 142 135 140 175 196 202 202 198 196 195 195 192 190 186 192 194 185 178 190 196 172 157 174 250 297 302 279 265 270 270
253 247 230 218 211 211 199 195 190 189 186 176 177 179 187 197 201 196 197 196 196 198 199 197 194 192 191 195 197 190 185 172 191 201 207 196 179 200 293 298 280 271 262
252 251 238 226 218 205 195 192 186 188 184 184 188 191 201 207 192 180 190 197 199 201 201 198 195 196 197 200 195 187 190 188 185 185 181 193 206 199 211 273 293 294 263
260 260 251 224 208 189 187 185 186 192 187 189 192 197 202 198 187 192 197 201 200 201 203 200 200 201 199 201 202 197 194 198 196 193 184 178 183 197 198 234 262 278 274
255 260 252 225 210 196 192 188 191 197 192 193 199 203 205 200 201 200 201 200 199 204 207 202 204 205 206 203 198 196 202 200 200 203 205 205 208 185 184 208 246 261 276
251 252 246 229 221 211 198 193 198 202 195 197 204 205 204 203 208 205 201 203 207 210 203 202 206 208 206 203 198 200 206 203 208 212 207 209 215 198 193 195 209 266 276
250 253 252 234 224 217 208 200 201 205 201 201 202 204 204 206 209 206 204 205 208 205 201 201 207 209 206 203 197 206 209 204 209 212 211 214 215 206 208 206 197 209 261
254 257 252 238 228 219 213 202 204 208 204 200 201 205 206 208 208 201 204 206 207 201 196 200 205 207 205 202 199 208 207 205 213 209 209 218 217 212 208 211 213 209 224
244 249 250 243 230 217 205 201 202 204 203 201 200 202 204 203 202 205 208 207 205 200 202 204 205 207 207 203 203 211 205 210 217 212 211 221 213 212 213 210 212 218 215
244 245 246 242 229 222 215 206 202 203 205 198 194 199 200 196 202 210 210 203 203 202 204 203 205 209 209 204 204 212 211 213 219 219 215 225 217 218 216 213 219 225 221
251 252 246 236 230 226 221 214 208 206 198 187 187 192 196 198 206 212 208 201 201 202 201 199 207 211 211 208 210 212 214 216 220 218 217 224 216 224 223 221 225 229 234
247 243 242 238 231 225 220 216 215 199 187 181 185 196 202 204 208 207 202 200 199 200 201 205 210 212 210 210 211 211 215 219 223 222 222 223 218 224 224 227 229 231 236
249 239 235 235 228 224 221 215 208 191 179 179 190 203 202 199 198 198 199 198 198 203 202 204 212 211 208 210 207 210 215 218 226 228 228 228 230 235 237 237 231 225 233
245 241 232 227 224 217 212 206 202 188 172 182 197 195 187 187 192 196 192 190 197 199 196 204 209 215 223 228 224 219 215 217 222 231 234 235 240 249 256 261 262 252 246
241 234 225 220 219 211 198 197 194 172 170 183 188 182 179 185 190 183 178 190 196 191 201 211 210 223 237 241 241 235 223 217 223 227 233 244 246 258 249 261 269 268 268
236 232 222 217 212 190 178 171 164 166 172 179 184 180 175 181 178 173 187 195 188 193 205 214 218 228 249 254 256 253 236 222 227 228 230 238 247 248 254 245 250 252 258
224 219 209 199 185 178 169 155 161 165 171 184 189 186 176 175 175 185 195 191 180 195 206 210 212 227 259 266 265 262 222 228 240 240 237 243 244 262 273 267 259 262 260
216 204 185 168 173 175 156 155 169 173 189 193 187 177 170 171 180 188 184 172 173 192 192 212 216 226 252 270 271 271 220 240 252 253 249 261 269 275 279 269 259 267 267
203 183 169 175 184 164 154 164 173 193 193 166 155 156 162 168 169 161 156 154 154 153 174 224 255 245 259 274 278 281 259 237 249 255 253 255 278 282 284 284 270 275 285
187 174 169 179 170 159 159 170 189 186 151 145 146 151 154 151 143 143 144 144 146 150 182 248 295 280 274 281 281 285 287 285 259 258 255 261 281 285 287 289 287 293 299
192 178 169 167 166 168 168 176 184 154 144 141 146 147 139 135 144 151 154 145 150 165 214 228 267 287 283 285 293 294 296 295 289 267 276 284 289 293 293 293 297 302 298
193 173 160 169 182 177 172 169 156 149 143 145 147 146 141 137 133 143 157 165 181 192 220 240 260 279 286 278 270 267 282 291 293 287 285 293 299 301 297 297 302 295 271
185 172 176 181 182 166 159 153 150 144 141 143 146 145 144 148 145 150 188 199 209 211 223 227 229 250 268 270 285 291 274 267 264 287 280 279 281 278 277 278 276 274 283
174 171 174 172 167 158 156 154 151 147 144 146 151 153 152 153 153 145 17 322 275 281 281 274 271 270 277 290 297 301 302 304 304 308 291 283 278 273 275 278 279 274 272